Regional Weather Roundup
Issued by NWS

Home | Current Version | Previous Version | Graphics & Text | Print | Product List | Glossary On
Versions: 1 2 3 4 5 6 7 8 9 10 11 12 13 14 15 16 17 18 19 20 21 22 23 24 25 26 27 28 29 30 31 32 33 34 35 36 37 38 39 40 41 42 43 44 45 46 47 48 49 50
000
ASUS43 KIND 270109
RWRIN

WEATHER ROUNDUP FOR INDIANA
NATIONAL WEATHER SERVICE INDIANAPOLIS IN
900 PM EDT TUE JUL 26 2016

NOTE: "FAIR" INDICATES FEW OR NO CLOUDS BELOW 12,000 FEET WITH NO
SIGNIFICANT WEATHER AND/OR OBSTRUCTIONS TO VISIBILITY.

* - STATION DOES NOT REPORT WEATHER SUCH AS PRECIPITATION OR FOG.

+ - STATION NOT QUALITY CONTROLLED BY THE NATIONAL WEATHER SERVICE.
    USE DATA WITH CAUTION...ESPECIALLY DEWPOINT AND RELATIVE
    HUMIDITY OBSERVATIONS.

INZ001>003-010>013-019-020-270200-
NORTHWEST INDIANA

CITY           SKY/WX    TMP DP  RH WIND       PRES   REMARKS
GARY /AIRPORT/ PTCLDY    79  68  69 NE5       30.03R
KNOX *+        CLEAR     75  63  64 N3        30.01S
LA PORTE +     CLEAR     77  67  71 NW7       30.03S
MICHIGAN CITY+ PTCLDY    73  66  78 CALM      30.03R
MONTICELLO +   CLEAR     77  67  70 CALM      30.00F
RENSSELAER +   CLEAR     75  72  88 CALM      30.02S
VALPARAISO     CLEAR     77  64  64 N3        30.03S

$$

LMZ046-743>745-270200-
SOUTHERN LAKE MICHIGAN

STATION/POSITION TIME  TEMP    WIND        PRES    WAVE
                       AIR SEA DIR/SP/G            HT
                 (UTC) (F)     (DEG/KT/KT) (MB)    (FT)
BURNS HARBOR     0000   79      60/  8/  9 1016.6S
MICHIGAN CITY    0000   77      30/  7/  8   N/A
5NW MICH CITY    0100   76 77   60/  2/  4   N/A     0

$$

INZ004-005-014>016-021>024-270200-
NORTH CENTRAL INDIANA

CITY           SKY/WX    TMP DP  RH WIND       PRES   REMARKS
ELKHART        CLEAR     81  70  69 N7        30.02S
GOSHEN         CLEAR     77  64  64 CALM      30.01S
LOGANSPORT +   CLEAR     75  64  69 CALM      30.02S
PERU/GRISSOM   CLEAR     81  64  56 NW3       30.00S
ROCHESTER +    CLEAR     79  70  73 CALM      30.02S
SOUTH BEND     PTCLDY    78  64  61 N5        30.02S
WARSAW +       CLEAR     77  63  61 CALM      30.01F

$$

INZ006>009-017-018-025>027-270200-
NORTHEAST INDIANA

CITY           SKY/WX    TMP DP  RH WIND       PRES   REMARKS
ANGOLA *+      PTCLDY    81  73  78 CALM      30.02S
AUBURN +       PTCLDY    79  59  50 N3        30.01S
FORT WAYNE     PTCLDY    77  65  66 W5        30.01S
HUNTINGTON +   CLEAR     78  65  64 CALM      30.01R

$$

INZ028-029-035-036-043>045-051>053-270200-
WEST CENTRAL INDIANA

CITY           SKY/WX    TMP DP  RH WIND       PRES   REMARKS
CRAWFORDSVL +  CLEAR     73  72  99 CALM      30.01F
GREENCASTLE +  PTCLDY    77  72  83 N6        30.01F
LAFAYETTE      CLEAR     77  69  76 CALM      29.99F
TERRE HAUTE    PTCLDY    79  72  79 N3        29.99F

$$

INZ030>032-037>040-046>048-054>057-064-065-270200-
CENTRAL INDIANA

CITY           SKY/WX    TMP DP  RH WIND       PRES   REMARKS
COLUMBUS       CLEAR     75  75 100 CALM      30.00S
INDIANAPOLIS   PTCLDY    79  63  57 NE8       30.01F
-EAGLE CREEK   PTCLDY    80  65  59 N3        30.00F
KOKOMO *+      CLEAR     77  64  65 CALM      30.01S
MARION +       PTCLDY    76  68  74 CALM      30.02S HAZE
MT COMFORT *+  CLEAR     73  70  88 CALM      30.02F
SHELBYVILLE    CLEAR     78  70  76 CALM      30.01R
ZIONSVILLE +   CLOUDY    75  71  87 CALM      30.03S

$$

INZ033-034-041-042-049-050-058-059-270200-
EAST CENTRAL INDIANA

CITY           SKY/WX    TMP DP  RH WIND       PRES   REMARKS
MUNCIE         PTCLDY    78  67  68 CALM      30.02S

$$

INZ060-061-067>069-081>083-085>088-270200-
SOUTHWEST INDIANA

CITY           SKY/WX    TMP DP  RH WIND       PRES   REMARKS
EVANSVILLE     CLOUDY    81  76  84 CALM      29.97S
HUNTINGBURG *+ MOCLDY    82  73  74 CALM      29.97S
WASHINGTON +   CLOUDY    80  79  99 MISG      29.97S

$$

INZ062-063-066-070>080-084-089>092-270200-
SOUTH CENTRAL AND SOUTHEAST INDIANA

CITY           SKY/WX    TMP DP  RH WIND       PRES   REMARKS
BLOOMINGTON    PTCLDY    79  72  79 N5        30.00S
MADISON *+     CLOUDY    73  70  88 N3        30.03R VSB<1/4
NORTH VERNON + PTCLDY    81  81 100 CALM      30.00

$$





USA.gov is the U.S. government's official web portal to all federal, state and local government web resources and services.